FENGYUN 1C DEB

Satellite information

Favourite Embed

Satellite Type and Status

DEBRISIN ORBIT

Key statistics

Satellite FENGYUN 1C DEB at a glance.

Uptime

9495

Days in orbit

Revolutions

≈ 13.2

Per day

Orbit

SSO

Sun Synchronous Orbit

Inclination

99.1

Latest

Satellite identification and parameters

Extended collection of information and parameters for FENGYUN 1C DEB.

Object identification

Identified? True

Debris? True

Object name: FENGYUN 1C DEB

International designator: 1999-025CPV

Object number (NORAD): 31992

Object ID (CCSDS): 31992

Country: PEOPLES REPUBLIC OF CHINA (PRC)

Current information (Y/N): Y

RCS size: SMALL

Orbital parameters

Period: 108.871 minutes

Inclination: 99.142 deg

SMA: 7552.705 km

Apoapsis: 1583.575 km

Periapsis: 765.566 km

RAAN: 110.9064 deg

Eccentricy: 0.0541534

Argument of periapsis: 207.5217 deg

Mean anomaly: 149.6245 deg

Mean motion: 13.22662258 rev/day

Mean motion (dot): 0.00000719 rev/day2

B* drag term: 0.00082925 1/REarth

Two-line elements (TLE)

Creation date: May 5, 2025, 2:11 a.m.

Reference frame: TEME

Reference center: EARTH

Epoch: May 4, 2025, 4:59 p.m. UTC

TLE line 0: 0 FENGYUN 1C DEB

TLE line 1: 1 31992U 99025CPV 25124.70790114 .00000719 00000-0 82925-3 0 9998

TLE line 2: 2 31992 99.1420 110.9064 0541534 207.5217 149.6245 13.22662258509392

Live tracking on map

Real-time ground track for satellite FENGYUN 1C DEB.

In-orbit conjunctions

A list of the most updated potential collisions computed for object FENGYUN 1C DEB.

Target Orbit TCA Probability of collision Miss distance Type
DMSP 5D-2 F8 DEB SSO 2024-10-18 04:09:39 0.0001208882 682.0 (m) DEBRIS
COSMOS 1980 LEO 2024-06-09 20:57:51 0.0004467831 88.0 (m) PAYLOAD

Associated space launch

Chinese polar orbiting meteorological satellite

FENGYUN 1C DEB was lifted into orbit during the mission ‘Long March 4B | Feng Yun 1C’, on board a Long March 4B space rocket.

The launch took place on May 10, 1999, 1:33 a.m. from Launch Complex 7.

For more information about the launch, click the button.

Launch to space Long March 4B | Feng Yun 1C
Long March 4B | Feng Yun 1C

Agency: N/A

Status: Launch Successful

Launch date: May 10, 1999, 1:33 a.m. UTC

Rocket: Long March 4B

Launch pad: Launch Complex 7

Location: Taiyuan Satellite Launch Center, People's Republic of China

...

Latest news about this satellite

There are no fresh news available about this satellite. Check back as we update our databases every day.


Newsletter sign-up

Weekly statistics, charts and insights to help you stay on top of the space industry.